Regional Weather Roundup
Issued by NWS

Home | Current Version | Previous Version | Text Only | Print | Product List | Glossary On
Versions: 1 2 3 4 5 6 7 8 9 10 11 12 13 14 15 16 17 18 19 20 21 22 23 24 25 26 27 28 29 30 31 32 33 34 35 36 37 38 39 40 41 42 43 44 45 46 47 48 49
000
ASUS42 KFFC 231503
RWRGA
WEATHER ROUNDUP FOR GEORGIA
NATIONAL WEATHER SERVICE PEACHTREE CITY GA
1100 AM EDT TUE SEP 23 2014

NOTE: "FAIR" INDICATES FEW OR NO CLOUDS BELOW 12,000 FEET WITH NO
SIGNIFICANT WEATHER AND/OR OBSTRUCTIONS TO VISIBILITY.

* = USE WITH CAUTION. THE STATIONS MARKED WITH AN ASTERISK MAY NOT
REPORT WEATHER SUCH AS PRECIPITATION, FOG, OR THUNDER AND ARE NOT
QUALITY CONTROLLED BY NWS.

THE REMARK "TC" DENOTES TEMPERATURE READING IN DEGREES CELSIUS.

GAZ001>058-231600-
NORTH GEORGIA

CITY           SKY/WX    TMP DP  RH WIND       PRES   REMARKS
ATLANTA        MOSUNNY   70  54  56 E15G22    30.22R
ATHENS         PTSUNNY   69  54  58 NE13G18   30.23R
CHAMBLEE       SUNNY     70  53  54 VRB6      30.23R
PEACHTREE CITY MOSUNNY   70  56  61 E9        30.22R
ROME           SUNNY     69  54  58 N7        30.24R
WEST ATLANTA   SUNNY     71  54  54 NE16      30.22R
GAINESVILLE    SUNNY     69  51  52 E14G20    30.26S
CARTERSVILLE   SUNNY     68  55  63 CALM      30.24S


CITY           SKY/WX    TMP DP  RH WIND       PRES   REMARKS
DALTON*        SUNNY     63  55  77 CALM      30.26R
LAWRENCEVILLE* SUNNY     70  50  49 E14       30.23S
KENNESAW*      SUNNY     70  52  52 SE10G16   30.25
$$

GAZ059>098-102>109-231600-
CENTRAL GEORGIA

CITY           SKY/WX    TMP DP  RH WIND       PRES   REMARKS
AUGUSTA-BUSH   SUNNY     73  59  61 NE14G21   30.19R
AUGUSTA-DANIEL SUNNY     73  58  59 NE13      30.21R
COLUMBUS       MOSUNNY   72  60  66 E12       30.17R
MACON          CLOUDY    68  64  87 NE8       30.18R
ROBINS AFB     CLOUDY    67  63  85 VRB6      30.18R


CITY           SKY/WX    TMP DP  RH WIND       PRES   REMARKS
LAGRANGE*      SUNNY     74  62  66 NE6       30.20R
SYLVANIA*      CLOUDY    69  68  95 NE7       30.17R
$$

GAZ099>101-110>166-231600-
SOUTH GEORGIA

CITY           SKY/WX    TMP DP  RH WIND       PRES   REMARKS
SAVANNAH       PTSUNNY   72  65  78 NE12      30.13S
VALDOSTA       MOSUNNY   78  62  57 E13       30.11R
ALMA           SUNNY     74  61  63 NE8G16    30.13R
ST SIMONS      CLOUDY    72  66  81 NE13      30.10R
ALBANY         PTSUNNY   71  64  78 NE9       30.16R
HUNTER AFB     PTSUNNY   70  66  86 NE9       30.11R
MOODY AFB      MOSUNNY   75  63  67 NE12      30.11R
BRUNSWICK      CLOUDY    72  68  88 NE8       30.11S


CITY           SKY/WX    TMP DP  RH WIND       PRES   REMARKS
BAINBRIDGE*    PTSUNNY   77  68  73 NE12G17   30.12R
MOULTRIE*      MOSUNNY   73  64  73 NE9       30.13R
VIDALIA*       MOSUNNY   73  64  73 NE7       30.15S
WAYCROSS*      SUNNY     79  65  61 E13       30.12R
DOUGLAS*       CLOUDY    73  64  73 NE9       30.15S
$$


USA.gov is the U.S. government's official web portal to all federal, state and local government web resources and services.